Location: Mallard Lake North
(41.9667°N, 88.3709°W)
Time: 11:32:19
(UTC+00:00)

ISS - Visible Passes

Search period start: 15 December 2025 00:00
Search period end: 25 December 2025 00:00
Orbit: 416 x 420 km, 51.6° (Epoch: 14 December)

Date Brightness Start Highest point End Pass type
(mag) Time Alt. Az. Time Alt. Az. Time Alt. Az.
15 Dec -1.6 10:50:49 24° SE 10:50:57 24° SE 10:53:43 10° E visible
15 Dec -3.4 12:24:18 10° WSW 12:27:34 45° NNW 12:30:50 10° NE visible
16 Dec -3.9 11:38:38 46° WSW 11:39:29 72° NW 11:42:52 10° NE visible
17 Dec -1.7 10:53:11 26° ENE 10:53:11 26° ENE 10:54:51 10° ENE visible
17 Dec -2.4 12:26:08 13° WNW 12:28:30 24° NNW 12:31:21 10° NE visible
18 Dec -2.8 11:40:27 32° NNW 11:40:27 32° NNW 11:43:24 10° NE visible
19 Dec -1.2 10:54:36 16° NE 10:54:36 16° NE 10:55:26 10° NE visible
19 Dec -1.9 12:27:33 12° NW 12:29:32 17° N 12:31:54 10° NE visible
20 Dec -2.0 11:41:35 20° N 11:41:35 20° N 11:43:51 10° NE visible
21 Dec -0.8 10:55:32 12° NE 10:55:32 12° NE 10:55:51 10° NE visible
21 Dec -1.7 12:28:28 10° NW 12:30:36 16° N 12:32:46 10° NE visible
22 Dec -1.7 11:42:20 16° N 11:42:20 16° N 11:44:28 10° NE visible
23 Dec -0.7 10:56:10 10° NNE 10:56:10 10° NNE 10:56:16 10° NE visible
23 Dec -1.7 12:29:11 10° NW 12:31:36 18° N 12:34:00 10° NE visible
24 Dec -1.7 11:42:52 16° N 11:43:13 16° N 11:45:27 10° NE visible
